Location: La Coruña
(43.3623°N, 8.4115°W)
Time: 02:19:42
(UTC+01:00)

STARLINK-1121 - Pass Details

Date: 20 January 2020
Orbit: 531 x 532 km, 53.0° (Epoch: 17 February)

Event Time Altitude Azimuth Distance (km) Brightness Sun altitude
Rises 19:54:00 0° 275° (W) 2,644 8.6 -15.3°
Reaches altitude 10° 19:56:31 10° 289° (WNW) 1,752 7.1 -15.8°
Maximum altitude 19:59:50 25° 345° (NNW) 1,085 5.1 -16.3°
Enters shadow 20:01:31 19° 22° (NNE) 1,289 5.2 -16.6°
